Location: Barcelona
(41.3830°N, 2.1830°E)
Time: 02:02:47
(UTC+02:00)

ISS - Pass Details

Date: 21 July 2019
Orbit: 409 x 418 km, 51.6° (Epoch: 23 July)

Event Time Altitude Azimuth Distance (km) Brightness Sun altitude
Rises 00:36:05 0° 296° (WNW) 2,352 0.7 -25.2°
Reaches altitude 10° 00:38:57 10° 323° (NW) 1,487 0.0 -25.4°
Maximum altitude 00:40:49 14° 357° (N) 1,259 -0.5 -25.5°
Drops below altitude 10° 00:42:42 10° 32° (NNE) 1,484 -0.5 -25.6°
Enters shadow 00:45:14 - 57° (ENE) 2,235 0.1 -25.8°
